User: anonymous   Login
Location: Unspecified
(0.0000°N, 0.0000°E)
Time: 18:07:53
(UTC+02:00)
Language:

HST - Orbit

View from above orbital plane
View from above orbital plane
View from above satellite
View from above satellite

Ground track
Ground track

The orbit data is extracted from the following two-line orbital elements,

1 20580U 90037B   14296.39728277  .00004140  00000-0  26555-3 0  1415
2 20580 028.4709 274.0358 0002998 214.0166 282.0813 15.05981301144066
Epoch (UTC): 23 October 2014 09:32:05
Eccentricity: 0.0002998
inclination: 28.4709°
perigee height: 546 km
apogee height: 550 km
right ascension of ascending node: 274.0358°
argument of perigee: 214.0166°
revolutions per day: 15.05981301
mean anomaly at epoch: 282.0813°
orbit number at epoch: 14406

The dashed part of the orbit path shows where the satellite is in the earth's shadow,  

DLR